OBJECT AU, 61777

Orbit data source: Space-Track

You're viewing an Uncataloged Satellite

Recently launched and/or uncataloged satellites may have evolving metadata. Metadata may include but not limited to: Owner, Maufacturer, Bus, Motor, and Mission.

OBJECT AU, 61777 is a satellite in SSO that was launched on Mon, 04 Nov 2024 UTC via a SOYUZ-2-1B launch vehicle from the Vostochny Cosmodrome (VOSTO). Unknown objects in Earth's orbit typically refer to objects detected orbiting the Earth but have not yet been identified or cataloged. These objects could be anything from previously untracked satellites, spent rocket stages, debris from satellite collisions, or even natural meteoroids temporarily captured by Earth's gravity.

Loading next visibility...
Identifier
61777, 2024-199AU
Orbit
SSO
Country
Flag of TBDTBD
Related business
None
Manufacturer
Unknown
Mission
Operational Commercial Communications
Bus & Motor
Unknown
Mass
Unknown
Launch date (UTC)
2024-11-04 (1 year ago)
Launch vehicle
SOYUZ-2-1B
Launch site
Vostochny Cosmodrome (VOSTO)
Object type
Unknown
Shape & HBR
Box, 0.1 m
Radar Cross Section
0.035 m², Small (<0.1 m²)

Expand to show TLE details & history
Last TLE update: 16 hours ago

TLE from 16 hours ago
0 OBJECT AU
1 61777U 24199AU  25296.94134484  .00018254  00000-0  52065-3 0  9995
2 61777  97.3302 164.1826 0019224  56.5011 303.8066 15.35919531 97800
Epoch: 2025-10-23T22:35Z
TLE epoch observation values (Epoch: 2025-10-23T22:35:32.194Z)
Latitude
-0.00006°
Longitude
152.70509°
Altitude
454.008 km
Speed
7.644 km/s
True Right ascension
10h 56m 43s
True Declination
0° 00' 00"
Sunlit
Object was in daylight at epoch
Visualization orbit readout
Latitude
Unknown
Longitude
Unknown
Altitude
Unknown
Speed
Unknown
Apparent Right ascension
Unknown
Apparent Declination
Unknown
Sunlit
N/A
Visualization observer readout
Local Sidereal Time
10:10:47
Azimuth
Unknown
Elevation
Unknown
Doppler factor
Unknown
Orbital elements
Apogee altitude
468.268 km
Perigee altitude
441.996 km
Semi-major axis
6,833.269 km
Eccentricity
0.00192
Inclination
97.3302°
RAAN
164.1826°
Arg. of periapsis
56.5011°
True anomaly
303.62331°
Mean anomaly
303.8066°
Eccentric anomaly
303.71498°
Mean motion
3.84238 °/min
Orbital period
93.69 mins
BSTAR
0.00052065
Loading maneuver chart data...
Computing Atmospheric mass density...
Loading historical data...
Loading historical data...
Loading historical data...
Loading historical data...
Loading historical data...
Loading historical data...
Loading historical data...

Documentation

Showing up to 5 results
|